Regional Weather Roundup
Issued by NWS Newport/Morehead, NC

Current Version | Previous Version | Graphics & Text | Print | Product List | Glossary On
Versions: 1 2 3 4 5 6 7 8 9 10 11 12 13 14 15 16 17 18 19 20 21 22 23 24 25 26 27 28 29 30 31 32 33 34 35 36 37 38 39 40 41 42 43 44 45 46 47 48 49 50
000 ASUS42 KMHX 041425 RWRMHX WEATHER ROUNDUP FOR EASTERN NORTH CAROLINA NATIONAL WEATHER SERVICE NEWPORT/MOREHEAD CITY NC 1000 AM EDT FRI SEP 04 2015 NOTE: "FAIR" INDICATES FEW OR NO CLOUDS BELOW 12,000 FEET WITH NO SIGNIFICANT WEATHER AND/OR OBSTRUCTIONS TO VISIBILITY NCZ015>017-031-032-045>047-102-103-041500- NORTH COAST CITY SKY/WX TMP DP RH WIND PRES REMARKS EDENTON SUNNY 83 72 70 NW3 29.97R ELIZABETH CITY SUNNY 83 73 72 N5 29.96R KITTY HAWK SUNNY 88 74 62 N3 29.95R MANTEO SUNNY 81 75 82 NW3 29.96R $$ NCZ045>047-081-094-103-104-041500- CENTRAL COAST CITY SKY/WX TMP DP RH WIND PRES REMARKS FRISCO MOSUNNY 82 74 76 N7 29.96S SWANQUARTER N/A 86 N/A N/A NW6 29.94R $$ NCZ095-097-098-100-101-041500- SOUTHERN COAST CITY SKY/WX TMP DP RH WIND PRES REMARKS BEAUFORT SUNNY 84 74 71 N6 29.96S CEDAR ISLAND N/A 82 N/A N/A NW8 30.00S JACKSONVILLE MOSUNNY 83 71 67 N3 29.97R PINEY ISLAND SUNNY N/A N/A N/A N7 29.97R HAZE WILMINGTON SUNNY 83 72 69 N3 29.97R $$ NCZ011>013-027>030-043-044-078>080-089-090>093-098-041500- COASTAL PLAIN CITY SKY/WX TMP DP RH WIND PRES REMARKS AHOSKIE SUNNY 81 72 74 CALM 29.98S CLINTON SUNNY 86 72 62 NW3 29.99R ELIZABETHTOWN SUNNY 83 74 73 CALM 29.99R GOLDSBORO SUNNY 84 71 65 NW1 29.97R GREENVILLE MOSUNNY 81 72 74 CALM 30.00R HAVELOCK SUNNY 85 72 65 N6 29.98R KENANSVILLE N/A 83 70 63 CALM 30.00R KINSTON SUNNY 82 72 69 CALM 29.99R NEW BERN SUNNY 83 72 69 N5 29.99R RICHLANDS SUNNY 84 70 61 CALM 29.98R ROCKY MOUNT SUNNY 84 71 65 N3 29.99R WASHINGTON MOSUNNY 84 73 70 CALM 29.98R WHITEVILLE SUNNY 82 74 76 CALM 29.97R $$ AMZ130-135-150-152-154-156-158-170-250-252-270-ANZ085-086-088-633-658-670-041500- MARINE OBSERVATIONS STATION/POSITION TIME TEMP WIND PRES WAVE SWELL AIR SEA DIR/SP/G HT/PER HT/PER (UTC) (F) (DEG/KT/KT) (MB) (FT/S) (FT/S) CHESAPEAKE LIGHT 1400 80 50/ 12/ 13 1015.2 64 E VA BEACH 1350 80 79 10/ 8/ 10 1013.8 1/ 7 2/ 7 DUCK 1400 81 80 350/ 5/ 6 1013.7 2 E DUCK 1311 80 N/A 1/11 OREGON INLET 1400 82 82 320/ 6/ 6 1014.3 13E OREGON INLT 1400 81 N/A 1/12 HATTERAS CG 1400 80 82 330/ 8/ 9 1014.5 DIAMOND BUOY 1350 81 85 340/ 8/ 10 1014.5 1/12 CAPE LOOKOUT 1400 83 360/ 6/ 7 1014.3 BEAUFORT LAB 1400 83 82 10/ 6/ 7 1014.0 30 SE NEW RVR IN 1308 82 81 20/ 4/ 6 1014.6 30 SE NEW RVR IN 1325 81 N/A 1/13 27 SE WRIGHTSVLE 1400 78 82 30/ 6/ 8 N/A 5 SE WRIGHTSVLE 1308 79 82 20/ 6/ 8 1014.5 225 S CAPE HAT 1350 83 84 20/ 4/ 6 1013.6 2/12 2/12 41 SE CHARLESTON 1350 82 84 340/ 8/ 10 1014.4 1/ 8 2/ 8 $$

USA.gov is the U.S. government's official web portal to all federal, state and local government web resources and services.